User: anonymous   Login
Location: Unspecified
(0.0000°N, 0.0000°E)
Time: 00:08:06
(UTC+00:00)
Language:

NORSAT 2 - Orbit

View from above orbital plane
View from above orbital plane
View from above satellite
View from above satellite

Ground track
Ground track

The orbit data is extracted from the following two-line orbital elements,

1 42828U 17042D   18112.77371340  .00000414  00000-0  47333-4 0  9996
2 42828  97.6030  17.2972 0015356  28.7591 331.4472 14.90971438 42074
Epoch (UTC): 22 April 2018 18:34:08
Eccentricity: 0.0015356
inclination: 97.6030°
perigee height: 584 km
apogee height: 605 km
right ascension of ascending node: 17.2972°
argument of perigee: 28.7591°
revolutions per day: 14.90971438
mean anomaly at epoch: 331.4472°
orbit number at epoch: 4207

The dashed part of the orbit path shows where the satellite is in the earth's shadow,  

DLR